DMSP 5D-2 F13 DEB, 40471

Orbit data source: Space-Track

DMSP 5D-2 F13 DEB, 40471 is space debris in SSO originally from a launch on Fri, 24 Mar 1995 UTC launched from the Air Force Western Test Range (AFWTR). Debris objects in space refer to the collection of defunct objects orbiting the Earth. Examples of debris include non-operational satellites, rocket bodies, and fragments generated from explosions, collisions, or faulty payload assembly.

Loading next visibility...
Identifier
40471, 1995-015BP
Orbit
SSO
Country
Flag of USUS
Related business
Manufacturer
Unknown
Mission
Spacecraft
Bus & Motor
Unknown
Mass
Unknown
Launch date (UTC)
1995-03-24 (31 years ago)
Launch vehicle
Unknown
Launch site
Air Force Western Test Range (AFWTR)
Object type
Payload
Rocket body
Debris
Shape & HBR
Unknown shape, 0.1 m
Radar Cross Section
Small (<0.1 m²)

Expand to show TLE details & history
Last TLE update: 7 hours ago

TLE from 7 hours ago
0 DMSP 5D-2 F13 DEB
1 40471U 95015BP  26119.52156697  .00003423  00000-0  13740-2 0  9995
2 40471  98.8817 148.1744 0023204 102.3620 258.0160 14.28736618575277
Epoch: 2026-04-29T12:31Z
TLE epoch observation values (Epoch: 2026-04-29T12:31:03.386Z)
Latitude
0.00001°
Longitude
102.92896°
Altitude
802.372 km
Speed
7.45 km/s
True Right ascension
09h 52m 41s
True Declination
0° 00' 00"
Sunlit
Object was in daylight at epoch
Visualization orbit readout
Latitude
Unknown
Longitude
Unknown
Altitude
Unknown
Speed
Unknown
Apparent Right ascension
Unknown
Apparent Declination
Unknown
Sunlit
N/A
Visualization observer readout
Local Sidereal Time
02:44:56
Azimuth
Unknown
Elevation
Unknown
Doppler factor
Unknown
Orbital elements
Apogee altitude
809.752 km
Perigee altitude
776.472 km
Semi-major axis
7,171.249 km
Eccentricity
0.00232
Inclination
98.8817°
RAAN
148.1744°
Arg. of periapsis
102.362°
True anomaly
257.75605°
Mean anomaly
258.016°
Eccentric anomaly
257.88601°
Mean motion
3.57397 °/min
Orbital period
100.73 mins
BSTAR
0.001374

Documentation

Showing up to 5 results
|